STARLINK-34567

Last updated on Sat Aug 16 2025 00:02:05 GMT+0000 (Coordinated Universal Time)

1 64795U 25150F 25227.58336806 .00055779 00000+0 12691-2 0 9994 2 64795 70.0003 315.4294 0003364 274.7132 34.0591 15.42683846 6086
UTC large
Height (km)
Speed (km/s)
/
Latitude / Longitude
Inclination (degrees)
Orbital Period (minutes)
Azimuth
Elevation
Range (km)
Doppler Factor

Next 0 passes for location: London (51.5072 / 0.1276)

Sorry there are no passes over London.